Waarnemingen

Advertentie
Mijn weer
Kvarn, Zweden (2561): temperatuur & dauwpunt: 11.12.2018 02:00:00 - 17.12.2018 02:00:00 (CET)Kvarn, Zweden (2561): windsnelheid & windstoten: 11.12.2018 02:00:00 - 17.12.2018 02:00:00 (CET)Kvarn, Zweden (2561): windrichting: 11.12.2018 02:00:00 - 17.12.2018 02:00:00 (CET)Kvarn, Zweden (2561): luchtdruk: 11.12.2018 02:00:00 - 17.12.2018 02:00:00 (CET)Kvarn, Zweden (2561): zicht: 11.12.2018 02:00:00 - 17.12.2018 02:00:00 (CET)Kvarn, Zweden (2561): neerslag: 11.12.2018 02:00:00 - 17.12.2018 02:00:00 (CET)
Datum & Tijd tt [°C] td [°C] ff [km/u] ff [kn] fx [km/u] fx [kn] dd ppp [hPa] vv [km] rr [mm]
17.12.2018 02:00:00 -1,0 -1,0 0 0 0 0 N 1016,1 3,3 0,3
17.12.2018 01:00:00 -0,9 -0,9 0 0 4 2 N 1016,2 2,5 0,2
17.12.2018 00:00:00 -0,8 -0,8 0 0 4 2 N 1016,5 2,0 0,3
16.12.2018 23:00:00 -0,8 -0,8 0 0 4 2 N 1016,9 2,1 0,2
16.12.2018 22:00:00 -0,6 -0,6 0 0 4 2 N 1017,3 2,1 0,3
16.12.2018 21:00:00 -0,5 -0,5 0 0 4 2 N 1017,9 2,1 0,2
16.12.2018 20:00:00 -0,4 -0,4 0 0 4 2 N 1018,1 1,9 0,2
16.12.2018 19:00:00 -0,3 -0,3 0 0 7 4 N 1018,8 1,3 0,3
16.12.2018 18:00:00 -0,1 -0,1 4 2 11 6 ONO 1019,5 1,7 0,1
16.12.2018 17:00:00 -0,1 -0,1 4 2 7 4 ONO 1020,1 3,6 0,2
16.12.2018 16:00:00 -0,3 -0,3 4 2 7 4 ONO 1020,7 7 0,2
16.12.2018 15:00:00 -0,2 -0,2 4 2 14 8 NO 1021,3 2,2 0,1
16.12.2018 14:00:00 0,0 -0,1 4 2 14 8 O 1022,0 15 0,0
16.12.2018 13:00:00 0,2 -0,1 4 2 14 8 O 1022,8 35 0,0
16.12.2018 12:00:00 0,2 0,1 4 2 14 8 ONO 1023,6 26 0,0
16.12.2018 11:00:00 0,2 0,1 4 2 14 8 O 1024,6 21 0,0
16.12.2018 10:00:00 0,0 0,0 4 2 7 4 O 1025,1 22 0,0
16.12.2018 09:00:00 0,0 0,0 4 2 7 4 O 1025,5 14 0,0
16.12.2018 08:00:00 -0,4 -0,4 0 0 7 4 N 1025,7 3,6 0,1
16.12.2018 07:00:00 -0,5 -0,5 4 2 7 4 NO 1026,2 15 0,0
16.12.2018 06:00:00 -0,6 -0,6 4 2 11 6 ONO 1026,7 16 0,1
16.12.2018 05:00:00 -0,8 -0,9 4 2 11 6 ONO 1027,3 26 0,0
16.12.2018 04:00:00 -0,9 -1,2 4 2 7 4 NO 1028,0 19 0,0
16.12.2018 03:00:00 -1,1 -1,5 4 2 11 6 ONO 1029,1 35 0,0
16.12.2018 02:00:00 -1,3 -1,6 4 2 7 4 NO 1029,7 30 0,0
16.12.2018 01:00:00 -1,5 -1,6 4 2 11 6 ONO 1030,3 29 0,0
16.12.2018 00:00:00 -1,5 -1,6 4 2 11 6 NO 1030,9 30 0,0
15.12.2018 23:00:00 -1,5 -1,8 4 2 11 6 ONO 1031,5 30 0,0
15.12.2018 22:00:00 -1,8 -1,9 4 2 11 6 ONO 1032,3 30 0,0
15.12.2018 21:00:00 -1,9 -2,0 4 2 7 4 NO 1032,8 30 0,0
15.12.2018 20:00:00 -2,0 -2,1 4 2 7 4 NO 1033,2 35 0,0
15.12.2018 19:00:00 -2,1 -2,2 0 0 7 4 N 1033,8 35 0,0
15.12.2018 18:00:00 -2,1 -2,2 0 0 7 4 N 1034,3 30 0,0
15.12.2018 17:00:00 -2,1 -2,2 4 2 7 4 NNO 1034,5 30 0,0
15.12.2018 16:00:00 -2,1 -2,2 0 0 7 4 N 1034,7 35 0,0
15.12.2018 15:00:00 -2,0 -2,1 4 2 7 4 NNO 1035,0 45 0,0
15.12.2018 14:00:00 -1,9 -2,2 4 2 7 4 NNO 1035,3 40 0,0
15.12.2018 13:00:00 -1,9 -2,2 4 2 7 4 NNO 1035,5 30 0,0
15.12.2018 12:00:00 -1,9 -2,0 4 2 7 4 NNO 1035,8 35 0,0
15.12.2018 11:00:00 -2,0 -2,1 0 0 7 4 N 1036,2 40 0,0
15.12.2018 10:00:00 -2,2 -2,3 4 2 7 4 NO 1036,2 30 0,0
15.12.2018 09:00:00 -2,2 -2,3 4 2 7 4 O 1036,0 45 0,0
15.12.2018 08:00:00 -2,2 -2,3 4 2 7 4 NO 1035,9 40 0,0
15.12.2018 07:00:00 -2,3 -2,4 0 0 7 4 N 1035,8 45 0,0
15.12.2018 06:00:00 -2,4 -2,5 4 2 7 4 N 1035,7 45 0,0
15.12.2018 05:00:00 -2,5 -2,6 4 2 7 4 N 1035,5 45 0,0
15.12.2018 04:00:00 -2,6 -2,7 4 2 11 6 NNO 1035,5 45 0,0
15.12.2018 03:00:00 -2,6 -2,7 4 2 7 4 NO 1035,7 45 0,0
15.12.2018 02:00:00 -2,7 -2,8 4 2 11 6 NO 1035,7 45 0,0
15.12.2018 01:00:00 -2,6 -2,6 4 2 7 4 NO 1035,6 45 0,0
15.12.2018 00:00:00 -2,6 -2,6 0 0 7 4 N 1035,4 45 0,0
14.12.2018 23:00:00 -2,6 -2,6 4 2 7 4 N 1035,7 45 0,0
14.12.2018 22:00:00 -2,6 -2,6 4 2 11 6 N 1035,9 40 0,0
14.12.2018 21:00:00 -2,5 -2,6 4 2 7 4 N 1035,9 45 0,0
14.12.2018 20:00:00 -2,5 -2,6 0 0 7 4 N 1035,6 45 0,0
14.12.2018 19:00:00 -2,5 -2,8 4 2 11 6 NNO 1035,3 50 0,0
14.12.2018 18:00:00 -2,3 -2,7 4 2 11 6 NNO 1035,4 50 0,0
14.12.2018 17:00:00 -2,2 -2,6 4 2 11 6 N 1035,3 50 0,0
14.12.2018 16:00:00 -2,2 -2,8 4 2 11 6 NNO 1035,1 50 0,0
14.12.2018 15:00:00 -2,1 -2,8 7 4 11 6 NNO 1034,9 50 0,0
14.12.2018 14:00:00 -1,4 -2,4 4 2 14 8 N 1034,5 50 0,0
14.12.2018 13:00:00 -0,9 -1,7 4 2 11 6 NNO 1034,4 45 0,0
14.12.2018 12:00:00 -1,2 -1,2 0 0 7 4 N 1034,4 40 0,0
14.12.2018 11:00:00 -1,7 -1,7 4 2 7 4 NNO 1034,7 30 0,0
14.12.2018 10:00:00 -2,5 -2,5 0 0 4 2 N 1034,6 29 0,0
14.12.2018 09:00:00 -3,8 -3,8 0 0 4 2 N 1034,3 23 0,0
14.12.2018 08:00:00 -3,8 -3,8 0 0 4 2 N 1033,9 21 0,0
14.12.2018 07:00:00 -3,1 -3,1 0 0 7 4 N 1033,6 35 0,0
14.12.2018 06:00:00 -1,7 -2,3 4 2 11 6 N 1033,4 50 0,0
14.12.2018 05:00:00 -1,3 -2,0 7 4 14 8 NNO 1033,2 50 0,0
14.12.2018 04:00:00 -1,1 -1,9 4 2 14 8 NNO 1033,3 50 0,0
14.12.2018 03:00:00 -1,1 -1,7 7 4 14 8 N 1033,6 50 0,0
14.12.2018 02:00:00 -1,0 -1,7 4 2 14 8 NNO 1033,6 22 0,0
14.12.2018 01:00:00 -1,2 -1,6 4 2 11 6 N 1033,5 50 0,0
14.12.2018 00:00:00 -1,4 -1,8 4 2 11 6 N 1033,4 45 0,0
13.12.2018 23:00:00 -1,0 -1,6 4 2 14 8 NNO 1033,4 50 0,0
13.12.2018 22:00:00 -0,9 -1,7 7 4 18 10 N 1033,4 45 0,0
13.12.2018 21:00:00 -1,0 -2,0 4 2 14 8 N 1033,3 50 0,0
13.12.2018 20:00:00 -1,1 -1,9 4 2 14 8 N 1033,0 50 0,0
13.12.2018 19:00:00 -1,3 -2,0 4 2 14 8 N 1032,9 50 0,0
13.12.2018 18:00:00 -1,0 -1,8 7 4 14 8 N 1032,9 50 0,0
13.12.2018 17:00:00 -1,0 -1,6 4 2 11 6 N 1033,1 50 0,0
13.12.2018 16:00:00 -1,0 -1,4 4 2 11 6 NNO 1033,2 35 0,0
13.12.2018 15:00:00 -0,9 -1,5 4 2 14 8 NNO 1033,1 7 0,0
13.12.2018 14:00:00 -0,9 -1,5 4 2 14 8 NNO 1033,0 45 0,0
13.12.2018 13:00:00 -1,0 -1,6 7 4 14 8 N 1033,0 40 0,0
13.12.2018 12:00:00 -1,0 -1,6 4 2 14 8 NNO 1033,3 24 0,0
13.12.2018 11:00:00 -1,0 -1,7 7 4 18 10 N 1033,7 45 0,0
13.12.2018 10:00:00 -1,1 -1,5 7 4 14 8 N 1033,8 50 0,0
13.12.2018 09:00:00 -1,2 -1,6 4 2 14 8 N 1033,7 50 0,0
13.12.2018 08:00:00 -1,1 -1,5 4 2 11 6 N 1033,6 50 0,0
13.12.2018 07:00:00 -0,9 -1,2 4 2 14 8 NO 1033,4 50 0,0
13.12.2018 06:00:00 -0,8 -0,9 4 2 14 8 NNO 1033,2 50 0,0
13.12.2018 05:00:00 -0,9 -1,0 4 2 11 6 NNO 1033,3 45 0,0
13.12.2018 04:00:00 -0,8 -1,1 4 2 11 6 N 1033,4 50 0,0
13.12.2018 03:00:00 -0,7 -1,0 4 2 11 6 N 1033,5 45 0,0
13.12.2018 02:00:00 -0,7 -0,8 4 2 14 8 NNO 1033,4 45 0,0
13.12.2018 01:00:00 -0,7 -1,0 7 4 11 6 N 1033,3 50 0,0
13.12.2018 00:00:00 -0,7 -0,8 4 2 11 6 N 1033,7 50 0,0
12.12.2018 23:00:00 -0,8 -1,1 4 2 14 8 N 1033,5 45 0,0
12.12.2018 22:00:00 -0,9 -1,2 7 4 14 8 N 1033,5 50 0,0
12.12.2018 21:00:00 -1,0 -1,3 7 4 11 6 N 1033,6 45 0,0
12.12.2018 20:00:00 -1,0 -1,3 4 2 14 8 N 1033,4 50 0,0
12.12.2018 19:00:00 -0,7 -1,1 7 4 14 8 NNO 1033,2 50 0,0
12.12.2018 18:00:00 -0,5 -0,8 4 2 14 8 N 1032,9 50 0,0
12.12.2018 17:00:00 -0,6 -0,7 4 2 11 6 N 1032,7 50 0,0
12.12.2018 16:00:00 -0,5 -0,8 4 2 11 6 N 1032,5 15 0,0
12.12.2018 15:00:00 -0,4 -0,8 7 4 14 8 NNW 1032,2 45 0,0
12.12.2018 14:00:00 -0,2 -0,9 7 4 14 8 N 1032,1 10 0,0
12.12.2018 13:00:00 -0,2 -1,3 7 4 14 8 N 1031,8 25 0,0
12.12.2018 12:00:00 -0,2 -1,3 7 4 14 8 N 1031,7 45 0,0
12.12.2018 11:00:00 -0,3 -1,4 7 4 14 8 N 1031,7 45 0,0
12.12.2018 10:00:00 -0,6 -1,0 4 2 11 6 NNW 1031,4 50 0,0
12.12.2018 09:00:00 -0,8 -1,2 4 2 14 8 N 1031,2 45 0,0
12.12.2018 08:00:00 -1,0 -1,0 4 2 14 8 NNO 1030,7 40 0,1
12.12.2018 07:00:00 -0,6 -0,7 4 2 14 8 N 1030,3 2,8 0,0
12.12.2018 06:00:00 0,1 -0,6 7 4 14 8 N 1029,6 35 0,0
12.12.2018 05:00:00 0,6 0,2 7 4 18 10 NNO 1029,0 50 0,0
12.12.2018 04:00:00 1,1 0,8 7 4 14 8 NNO 1028,3 45 0,0
12.12.2018 03:00:00 1,3 1,2 7 4 14 8 N 1027,9 50 0,0
12.12.2018 02:00:00 1,4 1,4 7 4 18 10 N 1027,4 40 0,0
12.12.2018 01:00:00 1,4 1,4 7 4 22 12 N 1026,8 10 0,0
12.12.2018 00:00:00 1,6 1,6 7 4 14 8 N 1026,4 6 0,0
11.12.2018 23:00:00 1,5 1,5 7 4 14 8 N 1025,7 50 0,0
11.12.2018 22:00:00 1,4 1,4 4 2 14 8 N 1025,3 8 0,0
11.12.2018 21:00:00 1,4 1,4 4 2 18 10 N 1024,6 15 0,0
11.12.2018 20:00:00 1,5 1,5 7 4 14 8 N 1024,1 12 0,0
11.12.2018 19:00:00 1,7 1,6 7 4 14 8 N 1023,4 50 0,0
11.12.2018 18:00:00 1,7 1,6 7 4 18 10 N 1022,7 50 0,0
11.12.2018 17:00:00 1,8 1,8 7 4 22 12 N 1022,0 45 0,0
11.12.2018 16:00:00 2,0 1,9 11 6 22 12 N 1021,5 35 0,0
11.12.2018 15:00:00 2,2 2,1 7 4 18 10 N 1020,3 35 0,0
11.12.2018 14:00:00 2,4 2,3 11 6 22 12 N 1019,6 50 0,0
11.12.2018 13:00:00 2,5 2,5 11 6 25 14 N 1018,6 45 0,0
11.12.2018 12:00:00 2,4 2,4 7 4 25 14 N 1017,6 45 0,0
11.12.2018 11:00:00 2,4 2,4 7 4 18 10 N 1016,8 4,8 0,2
11.12.2018 10:00:00 2,5 2,5 7 4 22 12 N 1015,7 12 0,1
11.12.2018 09:00:00 2,4 2,4 7 4 25 14 N 1014,7 29 0,0
11.12.2018 08:00:00 2,4 2,4 11 6 25 14 N 1013,7 25 0,0
11.12.2018 07:00:00 2,2 2,2 11 6 22 12 N 1012,7 15 0,1
11.12.2018 06:00:00 2,2 2,2 11 6 22 12 N 1011,8 50 0,0
11.12.2018 05:00:00 2,0 2,0 7 4 25 14 N 1010,9 27 0,0
11.12.2018 04:00:00 2,1 2,1 11 6 22 12 N 1009,9 50 0,0
11.12.2018 03:00:00 2,1 2,1 11 6 25 14 N 1008,7 35 0,0
11.12.2018 02:00:00 2,1 2,1 11 6 25 14 N 1007,7 23 0,0

tt = temperatuur
td = dauwpunt
ff = windsnelheid
fx = windstoten
dd = windrichting
ppp = luchtdruk
vv = zicht
rr = neerslag

Weerstations in de omgeving